GW0058 Weather Reports


Display with metric or nautical units.
time (UTC)temp
F
wind
direction
speed
MPH
gust
MPH
rain 1hr
in
rain 24hr
in
rain mn
in
humidity
%
barometer
mb
20210917232050 94 0 1.0 7.0 0.00 0.00 0.00 43 1013.7
20210917231619 94 145 2.0 7.0 0.00 0.00 0.00 43 1013.7
20210917231050 94 0 1.0 7.0 0.00 0.00 0.00 42 1013.7
20210917230637 94 90 1.0 7.0 0.00 0.00 0.00 42 1013.6
20210917230146 94 151 2.0 5.0 0.00 0.00 0.00 41 1013.5
20210917225556 94 119 1.0 7.0 0.00 0.00 0.00 42 1013.6
20210917225051 94 112 2.0 7.0 0.00 0.00 0.00 42 1013.6
20210917224820 94 130 2.0 6.0 0.00 0.00 0.00 42 1013.6
20210917224049 94 144 2.0 7.0 0.00 0.00 0.00 43 1013.7
20210917223554 94 148 2.0 7.0 0.00 0.00 0.00 43 1013.5
20210917223206 94 144 2.0 7.0 0.00 0.00 0.00 43 1013.5
20210917222554 93 124 2.0 7.0 0.00 0.00 0.00 44 1013.5
20210917222058 93 121 2.0 7.0 0.00 0.00 0.00 45 1013.6
20210917221809 93 122 1.0 8.0 0.00 0.00 0.00 44 1013.5
20210917221050 93 133 2.0 8.0 0.00 0.00 0.00 43 1013.6
20210917220557 93 64 1.0 5.0 0.00 0.00 0.00 43 1013.5
20210917220242 94 78 1.0 6.0 0.00 0.00 0.00 41 1013.6
20210917215550 94 66 2.0 6.0 0.00 0.00 0.00 41 1013.5
20210917215054 95 56 1.0 4.0 0.00 0.00 0.00 40 1013.5
20210917214618 96 88 1.0 4.0 0.00 0.00 0.00 39 1013.4
20210917214049 96 180 1.0 4.0 0.00 0.00 0.00 39 1013.3
20210917213547 95 247 0.0 3.0 0.00 0.00 0.00 39 1013.4
20210917213240 95 0 1.0 3.0 0.00 0.00 0.00 39 1013.4
20210917212550 95 0 0.0 4.0 0.00 0.00 0.00 40 1013.4
20210917212108 95 0 1.0 4.0 0.00 0.00 0.00 39 1013.4
20210917211710 94 0 1.0 3.0 0.00 0.00 0.00 40 1013.4
20210917211058 94 121 0.0 2.0 0.00 0.00 0.00 41 1013.4
20210917210550 93 0 0.0 2.0 0.00 0.00 0.00 40 1013.5
20210917210146 93 121 0.0 2.0 0.00 0.00 0.00 41 1013.6
20210917205622 94 121 1.0 4.0 0.00 0.00 0.00 41 1013.5
20210917205049 94 121 2.0 4.0 0.00 0.00 0.00 40 1013.4
20210917204706 95 120 1.0 4.0 0.00 0.00 0.00 40 1013.5
20210917204100 96 119 1.0 5.0 0.00 0.00 0.00 39 1013.6
20210917203600 97 119 2.0 6.0 0.00 0.00 0.00 38 1013.6
20210917203154 98 119 3.0 6.0 0.00 0.00 0.00 37 1013.6
20210917202547 99 109 1.0 6.0 0.00 0.00 0.00 36 1013.7
20210917202049 98 36 1.0 4.0 0.00 0.00 0.00 36 1013.8
20210917201629 98 0 2.0 5.0 0.00 0.00 0.00 36 1013.9
20210917201058 98 72 1.0 5.0 0.00 0.00 0.00 40 1013.9
20210917200551 97 321 1.0 4.0 0.00 0.00 0.00 40 1014.0
20210917200305 96 96 1.0 4.0 0.00 0.00 0.00 41 1014.1
20210917195615 95 160 1.0 4.0 0.00 0.00 0.00 41 1014.2
20210917195058 94 162 1.0 4.0 0.00 0.00 0.00 43 1014.4
20210917194636 94 273 1.0 3.0 0.00 0.00 0.00 45 1014.3
20210917194055 93 267 1.0 4.0 0.00 0.00 0.00 45 1014.4
20210917193555 93 266 1.0 4.0 0.00 0.00 0.00 45 1014.4
20210917193146 93 126 1.0 4.0 0.00 0.00 0.00 44 1014.6
20210917192550 94 126 0.0 5.0 0.00 0.00 0.00 44 1014.7
20210917192114 94 126 0.0 5.0 0.00 0.00 0.00 43 1014.7
20210917191627 95 324 2.0 4.0 0.00 0.00 0.00 43 1014.8
20210917191051 96 0 1.0 3.0 0.00 0.00 0.00 42 1014.9
20210917190553 96 136 1.0 5.0 0.00 0.00 0.00 43 1014.9
20210917190221 95 119 2.0 6.0 0.00 0.00 0.00 44 1015.0
20210917185555 94 126 1.0 6.0 0.00 0.00 0.00 44 1015.1
20210917185052 94 135 1.0 4.0 0.00 0.00 0.00 46 1015.1
20210917184714 94 0 1.0 6.0 0.00 0.00 0.00 45 1015.3
20210917184138 94 153 1.0 6.0 0.00 0.00 0.00 44 1015.4
20210917183551 94 154 1.0 7.0 0.00 0.00 0.00 44 1015.4
20210917183132 94 133 3.0 7.0 0.00 0.00 0.00 44 1015.3
20210917182549 94 67 2.0 6.0 0.00 0.00 0.00 44 1015.4
20210917182055 94 163 1.0 5.0 0.00 0.00 0.00 46 1015.5
20210917181652 94 234 2.0 6.0 0.00 0.00 0.00 46 1015.5
20210917181054 94 181 2.0 6.0 0.00 0.00 0.00 47 1015.6
20210917180559 93 136 1.0 4.0 0.00 0.00 0.00 49 1015.6
20210917180121 93 126 1.0 5.0 0.00 0.00 0.00 48 1015.6
20210917175555 92 123 2.0 5.0 0.00 0.00 0.00 47 1015.6
20210917175052 92 212 1.0 5.0 0.00 0.00 0.00 48 1015.7
20210917174644 92 126 2.0 8.0 0.00 0.00 0.00 50 1015.8
20210917174050 92 126 3.0 8.0 0.00 0.00 0.00 52 1015.9
20210917173549 91 136 2.0 7.0 0.00 0.00 0.00 53 1015.8
20210917173134 91 206 1.0 6.0 0.00 0.00 0.00 53 1015.9
20210917172552 91 127 3.0 6.0 0.00 0.00 0.00 53 1016.0
20210917172047 91 0 3.0 8.0 0.00 0.00 0.00 53 1016.0
20210917171632 90 113 0.0 8.0 0.00 0.00 0.00 53 1016.1
20210917171050 90 136 3.0 9.0 0.00 0.00 0.00 54 1016.1
20210917170549 90 123 2.0 9.0 0.00 0.00 0.00 54 1016.1
20210917170053 90 121 3.0 9.0 0.00 0.00 0.00 55 1016.1
20210917165602 90 144 2.0 7.0 0.00 0.00 0.00 56 1016.1
20210917165054 90 126 3.0 7.0 0.00 0.00 0.00 55 1016.3
20210917164640 89 143 2.0 7.0 0.00 0.00 0.00 57 1016.1
20210917164049 89 190 1.0 5.0 0.00 0.00 0.00 56 1016.2
20210917163553 89 166 2.0 6.0 0.00 0.00 0.00 57 1016.2
20210917163217 88 196 3.0 8.0 0.00 0.00 0.00 58 1016.3
20210917162549 88 273 2.0 8.0 0.00 0.00 0.00 59 1016.3
20210917162050 87 279 2.0 5.0 0.00 0.00 0.00 60 1016.5
20210917161700 87 242 2.0 6.0 0.00 0.00 0.00 61 1016.5
20210917161111 87 189 3.0 6.0 0.00 0.00 0.00 61 1016.5
20210917160548 86 175 2.0 6.0 0.00 0.00 0.00 63 1016.5
20210917160059 86 168 2.0 5.0 0.00 0.00 0.00 64 1016.5
20210917155549 85 173 3.0 6.0 0.00 0.00 0.00 64 1016.6
20210917155051 85 170 3.0 8.0 0.00 0.00 0.00 64 1016.7
20210917154710 85 191 4.0 8.0 0.00 0.00 0.00 65 1016.7
20210917154049 84 188 2.0 7.0 0.00 0.00 0.00 66 1016.7
20210917153548 84 123 3.0 7.0 0.00 0.00 0.00 66 1016.7
20210917153152 84 181 3.0 6.0 0.00 0.00 0.00 67 1016.7
20210917152550 83 169 1.0 6.0 0.00 0.00 0.00 69 1016.6
20210917152050 83 180 2.0 5.0 0.00 0.00 0.00 70 1016.6
20210917151648 82 165 1.0 5.0 0.00 0.00 0.00 71 1016.6
20210917151102 82 197 1.0 9.0 0.00 0.00 0.00 72 1016.6
20210917150548 81 149 3.0 9.0 0.00 0.00 0.00 73 1016.6
20210917150149 80 153 1.0 5.0 0.00 0.00 0.00 76 1016.6
20210917145558 79 143 2.0 5.0 0.00 0.00 0.00 77 1016.6
20210917145049 79 154 2.0 5.0 0.00 0.00 0.00 78 1016.4
20210917144644 78 164 2.0 5.0 0.00 0.00 0.00 80 1016.4
20210917144056 77 197 2.0 5.0 0.00 0.00 0.00 83 1016.3
20210917143548 76 173 2.0 5.0 0.00 0.00 0.00 86 1016.3
20210917143104 75 205 2.0 7.0 0.00 0.00 0.00 89 1016.2
20210917142548 74 161 1.0 7.0 0.00 0.00 0.00 91 1016.1
20210917142051 73 175 1.0 5.0 0.00 0.00 0.00 93 1016.2
20210917141645 73 175 1.0 4.0 0.00 0.00 0.00 95 1016.2
20210917141049 72 171 1.0 2.0 0.00 0.00 0.00 96 1016.2
20210917140551 72 0 0.0 2.0 0.00 0.00 0.00 96 1016.2
20210917140133 71 170 0.0 2.0 0.00 0.00 0.00 96 1016.1
20210917135548 71 170 0.0 4.0 0.00 0.00 0.00 96 1016.1
20210917135101 70 0 0.0 4.0 0.00 0.00 0.00 96 1016.1
20210917134743 70 98 0.0 2.0 0.00 0.00 0.00 96 1016.1
20210917134049 69 98 0.0 3.0 0.00 0.00 0.00 96 1016.0
20210917133550 69 0 0.0 3.0 0.00 0.00 0.00 96 1015.9
20210917133312 68 92 0.0 2.0 0.00 0.00 0.00 96 1015.8
20210917132601 67 0 0.0 2.0 0.00 0.00 0.00 96 1015.6
20210917132051 67 80 0.0 2.0 0.00 0.00 0.00 96 1015.7
20210917131602 66 84 0.0 0.0 0.00 0.00 0.00 95 1015.7
20210917131048 66 0 0.0 0.0 0.00 0.00 0.00 95 1015.7
20210917130550 65 0 0.0 0.0 0.00 0.00 0.00 95 1015.7
20210917130137 65 0 0.0 0.0 0.00 0.00 0.00 95 1015.7
20210917125549 65 0 0.0 0.0 0.00 0.00 0.00 95 1015.6
20210917125049 65 0 0.0 0.0 0.00 0.00 0.00 95 1015.5
20210917124804 65 0 0.0 0.0 0.00 0.00 0.00 94 1015.5
20210917124116 65 0 0.0 0.0 0.00 0.00 0.00 94 1015.4
20210917123559 65 0 0.0 0.0 0.00 0.00 0.00 94 1015.3
20210917123133 65 0 0.0 0.0 0.00 0.00 0.00 94 1015.3
20210917122551 65 0 0.0 0.0 0.00 0.00 0.00 94 1015.2
20210917122048 65 0 0.0 0.0 0.00 0.00 0.00 94 1015.2
20210917121707 65 0 0.0 0.0 0.00 0.00 0.00 94 1015.1
20210917121108 65 0 0.0 0.0 0.00 0.00 0.00 94 1015.0
20210917120639 65 0 0.0 0.0 0.00 0.00 0.00 94 1015.1
20210917120134 65 0 0.0 0.0 0.00 0.00 0.00 94 1015.0
20210917115548 65 0 0.0 0.0 0.00 0.00 0.00 94 1014.9
20210917115053 65 0 0.0 0.0 0.00 0.00 0.00 93 1014.8
20210917114615 65 0 0.0 0.0 0.00 0.00 0.00 93 1014.8
20210917114107 65 0 0.0 0.0 0.00 0.00 0.00 93 1014.8
20210917113555 65 0 0.0 0.0 0.00 0.00 0.00 93 1014.6
20210917113149 65 0 0.0 0.0 0.00 0.00 0.00 93 1014.5
20210917112548 65 0 0.0 0.0 0.00 0.00 0.00 93 1014.4
20210917112049 65 0 0.0 0.0 0.00 0.00 0.00 93 1014.4
20210917111654 65 0 0.0 0.0 0.00 0.00 0.00 93 1014.3
20210917111055 65 0 0.0 0.0 0.00 0.00 0.00 93 1014.4
20210917110550 65 0 0.0 0.0 0.00 0.00 0.00 93 1014.3
20210917110129 65 0 0.0 0.0 0.00 0.00 0.00 93 1014.3
20210917105613 65 0 0.0 0.0 0.00 0.00 0.00 93 1014.2
20210917105121 65 0 0.0 0.0 0.00 0.00 0.00 93 1014.1
20210917104654 65 0 0.0 0.0 0.00 0.00 0.00 93 1014.1
20210917104050 65 0 0.0 0.0 0.00 0.00 0.00 92 1014.1
20210917103549 65 0 0.0 0.0 0.00 0.00 0.00 92 1014.0
20210917103105 65 0 0.0 0.0 0.00 0.00 0.00 92 1014.0
20210917102548 65 0 0.0 0.0 0.00 0.00 0.00 92 1014.0
20210917102100 65 0 0.0 0.0 0.00 0.00 0.00 92 1013.9
20210917101651 65 0 0.0 0.0 0.00 0.00 0.00 92 1013.8
20210917101048 65 0 0.0 0.0 0.00 0.00 0.00 92 1013.7
20210917100551 65 0 0.0 0.0 0.00 0.00 0.00 92 1013.7
20210917100103 66 0 0.0 0.0 0.00 0.00 0.00 92 1013.6
20210917095548 66 0 0.0 0.0 0.00 0.00 0.00 91 1013.6
20210917095049 66 0 0.0 0.0 0.00 0.00 0.00 91 1013.6
20210917094643 66 0 0.0 0.0 0.00 0.00 0.00 91 1013.7
20210917094048 66 0 0.0 0.0 0.00 0.00 0.00 91 1013.7
20210917093608 66 0 0.0 0.0 0.00 0.00 0.00 91 1013.7
20210917093110 66 0 0.0 0.0 0.00 0.00 0.00 91 1013.7
20210917092549 66 0 0.0 1.0 0.00 0.00 0.00 91 1013.7
20210917092057 66 0 0.0 1.0 0.00 0.00 0.00 91 1013.8
20210917091711 66 92 0.0 1.0 0.00 0.00 0.00 91 1013.8
20210917091049 67 0 0.0 0.0 0.00 0.00 0.00 91 1013.7
20210917090550 67 0 0.0 0.0 0.00 0.00 0.00 91 1013.7
20210917090335 67 0 0.0 0.0 0.00 0.00 0.00 91 1013.8
20210917085559 67 0 0.0 0.0 0.00 0.00 0.00 91 1013.8
20210917085048 67 0 0.0 0.0 0.00 0.00 0.00 91 1013.9
20210917084725 67 0 0.0 0.0 0.00 0.00 0.00 90 1013.8
20210917084055 67 0 0.0 0.0 0.00 0.00 0.00 90 1013.8
20210917083550 67 0 0.0 0.0 0.00 0.00 0.00 90 1013.9
20210917083118 67 0 0.0 0.0 0.00 0.00 0.00 90 1013.9
20210917082550 67 0 0.0 0.0 0.00 0.00 0.00 90 1014.0
20210917082048 67 0 0.0 0.0 0.00 0.00 0.00 90 1013.9
20210917081638 67 0 0.0 0.0 0.00 0.00 0.00 90 1013.9
20210917081054 67 0 0.0 0.0 0.00 0.00 0.00 89 1013.9
20210917080550 67 0 0.0 0.0 0.00 0.00 0.00 89 1013.9
20210917080113 67 0 0.0 0.0 0.00 0.00 0.00 88 1014.0
20210917075604 68 0 0.0 0.0 0.00 0.00 0.00 88 1013.9
20210917075055 68 0 0.0 0.0 0.00 0.00 0.00 88 1013.9
20210917074719 68 0 0.0 0.0 0.00 0.00 0.00 88 1013.9
20210917074053 68 0 0.0 0.0 0.00 0.00 0.00 88 1013.9
20210917073603 68 0 0.0 0.0 0.00 0.00 0.00 88 1013.8
20210917073126 68 0 0.0 0.0 0.00 0.00 0.00 87 1013.8
20210917072549 68 0 0.0 0.0 0.00 0.00 0.00 87 1013.8
20210917072055 68 0 0.0 0.0 0.00 0.00 0.00 88 1013.8
20210917071632 68 0 0.0 0.0 0.00 0.00 0.00 87 1013.8
20210917071052 69 0 0.0 0.0 0.00 0.00 0.00 87 1013.8
20210917070550 69 0 0.0 0.0 0.00 0.00 0.00 86 1013.9
20210917070209 69 0 0.0 0.0 0.00 0.00 0.00 86 1013.9
20210917065548 69 0 0.0 0.0 0.00 0.00 0.00 86 1013.9
20210917065050 69 0 0.0 0.0 0.00 0.00 0.00 85 1013.9
20210917064603 69 0 0.0 0.0 0.00 0.00 0.00 85 1013.8
20210917064105 70 0 0.0 0.0 0.00 0.00 0.00 85 1013.8
20210917063557 70 0 0.0 0.0 0.00 0.00 0.00 85 1013.8
20210917063157 70 0 0.0 0.0 0.00 0.00 0.00 84 1013.8
20210917062548 70 0 0.0 0.0 0.00 0.00 0.00 84 1013.8
20210917062100 71 0 0.0 0.0 0.00 0.00 0.00 83 1013.8
20210917061650 71 0 0.0 0.0 0.00 0.00 0.00 83 1013.8
20210917061048 71 0 0.0 0.0 0.00 0.00 0.00 81 1013.9
20210917060616 71 0 0.0 0.0 0.00 0.00 0.00 81 1013.8
20210917060113 72 0 0.0 0.0 0.00 0.00 0.00 81 1013.9
20210917055600 72 0 0.0 0.0 0.00 0.00 0.00 81 1014.0
20210917055048 72 0 0.0 0.0 0.00 0.00 0.00 82 1013.9
20210917054657 72 0 0.0 0.0 0.00 0.00 0.00 81 1013.9
20210917054050 72 0 0.0 0.0 0.00 0.00 0.00 81 1013.9
20210917053550 72 0 0.0 0.0 0.00 0.00 0.00 81 1013.9
20210917053200 73 0 0.0 1.0 0.00 0.00 0.00 80 1013.9
20210917052549 73 0 0.0 1.0 0.00 0.00 0.00 80 1013.9
20210917052054 73 0 0.0 0.0 0.00 0.00 0.00 79 1013.9
20210917051614 73 0 0.0 0.0 0.00 0.00 0.00 79 1013.9
20210917051049 73 0 0.0 0.0 0.00 0.00 0.00 79 1013.9
20210917050551 73 0 0.0 1.0 0.00 0.00 0.00 79 1013.9
20210917050130 74 0 0.0 1.0 0.00 0.00 0.00 78 1013.7
20210917045602 74 0 0.0 1.0 0.00 0.00 0.00 78 1013.7
20210917045048 74 91 0.0 1.0 0.00 0.00 0.00 78 1013.8
20210917044813 74 0 0.0 1.0 0.00 0.00 0.00 78 1013.7
20210917044105 74 0 0.0 1.0 0.00 0.00 0.00 78 1013.7
20210917043548 74 0 0.0 2.0 0.00 0.00 0.00 78 1013.6
20210917043230 74 0 0.0 2.0 0.00 0.00 0.00 77 1013.6
20210917042549 74 92 0.0 4.0 0.00 0.00 0.00 77 1013.6
20210917042050 74 0 1.0 4.0 0.00 0.00 0.00 77 1013.6
20210917041717 74 92 0.0 3.0 0.00 0.00 0.00 77 1013.7
20210917041051 74 92 0.0 3.0 0.00 0.00 0.00 76 1013.7
20210917040549 74 0 0.0 3.0 0.00 0.00 0.00 76 1013.7
20210917040316 74 91 0.0 3.0 0.00 0.00 0.00 76 1013.6
20210917035551 74 0 0.0 3.0 0.00 0.00 0.00 76 1013.6
20210917035053 74 0 0.0 1.0 0.00 0.00 0.00 76 1013.5
20210917034629 74 0 0.0 3.0 0.00 0.00 0.00 76 1013.4
20210917034050 74 0 0.0 3.0 0.00 0.00 0.00 76 1013.5
20210917033548 73 93 0.0 3.0 0.00 0.00 0.00 76 1013.4
20210917033202 73 93 0.0 3.0 0.00 0.00 0.00 76 1013.3
20210917032547 73 0 0.0 3.0 0.00 0.00 0.00 75 1013.2
20210917032048 73 0 0.0 3.0 0.00 0.00 0.00 74 1013.2
20210917031635 73 0 0.0 0.0 0.00 0.00 0.00 73 1013.3
20210917031049 74 0 0.0 0.0 0.00 0.00 0.00 73 1013.2
20210917030551 74 0 0.0 0.0 0.00 0.00 0.00 72 1013.1
20210917030114 74 0 0.0 0.0 0.00 0.00 0.00 73 1013.1
20210917025630 74 0 0.0 0.0 0.00 0.00 0.00 71 1013.0
20210917025048 74 0 0.0 0.0 0.00 0.00 0.00 71 1012.9
20210917024743 75 0 0.0 0.0 0.00 0.00 0.00 70 1012.7
20210917024048 75 0 0.0 0.0 0.00 0.00 0.00 70 1012.6
20210917023607 75 0 0.0 0.0 0.00 0.00 0.00 70 1012.5
20210917023138 76 0 0.0 0.0 0.00 0.00 0.00 69 1012.5
20210917022553 76 0 0.0 0.0 0.00 0.00 0.00 67 1012.5
20210917022048 76 0 0.0 0.0 0.00 0.00 0.00 66 1012.3
20210917021730 77 0 0.0 0.0 0.00 0.00 0.00 65 1012.3
20210917021050 77 0 0.0 0.0 0.00 0.00 0.00 65 1012.3
20210917020548 77 0 0.0 0.0 0.00 0.00 0.00 64 1012.2
20210917020312 78 0 0.0 0.0 0.00 0.00 0.00 63 1012.0
20210917015549 78 0 0.0 0.0 0.00 0.00 0.00 63 1012.1
20210917015056 79 0 0.0 0.0 0.00 0.00 0.00 62 1012.0
20210917014615 79 0 0.0 0.0 0.00 0.00 0.00 61 1011.9
20210917014104 80 0 0.0 0.0 0.00 0.00 0.00 61 1011.8
20210917013551 80 0 0.0 0.0 0.00 0.00 0.00 60 1011.7
20210917013140 81 0 0.0 0.0 0.00 0.00 0.00 59 1011.5
20210917012548 81 0 0.0 0.0 0.00 0.00 0.00 59 1011.5
20210917012049 82 0 0.0 0.0 0.00 0.00 0.00 57 1011.4
20210917011737 82 0 0.0 0.0 0.00 0.00 0.00 57 1011.3
20210917011050 83 0 0.0 0.0 0.00 0.00 0.00 56 1011.2
20210917010555 83 0 0.0 0.0 0.00 0.00 0.00 55 1011.2
20210917010126 84 0 0.0 0.0 0.00 0.00 0.00 54 1011.2
20210917005606 84 0 0.0 0.0 0.00 0.00 0.00 54 1011.0
20210917005049 85 0 0.0 0.0 0.00 0.00 0.00 53 1011.0
20210917004754 85 0 0.0 0.0 0.00 0.00 0.00 53 1011.0
20210917004047 85 0 0.0 0.0 0.00 0.00 0.00 52 1011.0
20210917003557 86 0 0.0 0.0 0.00 0.00 0.00 51 1010.9
20210917003108 86 0 0.0 1.0 0.00 0.00 0.00 51 1010.8
20210917002558 86 0 0.0 2.0 0.00 0.00 0.00 50 1010.8
20210917002102 86 0 0.0 2.0 0.00 0.00 0.00 50 1010.8
20210917001701 87 0 0.0 3.0 0.00 0.00 0.00 50 1010.7
20210917001110 87 65 0.0 3.0 0.00 0.00 0.00 49 1010.7
20210917000555 87 61 0.0 5.0 0.00 0.00 0.00 49 1010.7
20210917000150 87 57 0.0 5.0 0.00 0.00 0.00 48 1010.8
20210916235547 88 0 1.0 4.0 0.00 0.00 0.00 47 1010.7
20210916235048 89 0 0.0 4.0 0.00 0.00 0.00 47 1010.6
20210916234617 89 92 0.0 4.0 0.00 0.00 0.00 46 1010.5
20210916234047 90 92 0.0 3.0 0.00 0.00 0.00 45 1010.4
20210916233549 90 0 0.0 2.0 0.00 0.00 0.00 43 1010.4
20210916233123 90 99 0.0 2.0 0.00 0.00 0.00 43 1010.4
20210916232605 91 0 0.0 5.0 0.00 0.00 0.00 43 1010.4